Regional Weather Roundup
Issued by NWS

Home | Current Version | Previous Version | Text Only | Print | Product List | Glossary On
Versions: 1 2 3 4 5 6 7 8 9 10 11 12 13 14 15 16 17 18 19 20 21 22 23 24 25 26 27 28 29 30 31 32 33 34 35 36 37 38 39 40 41 42 43 44 45 46 47 48 49 50
000
ASHW40 PHFO 240832
RWRHI

WEATHER ROUNDUP FOR HAWAII
NATIONAL WEATHER SERVICE HONOLULU HI
1000 PM HST MON JAN 23 2017

THIS IS AN AUTOMATED REPORT THAT HAS NOT BEEN QUALITY CONTROLLED.

NOTE..."FAIR" INDICATES FEW OR NO CLOUDS BELOW 12,000 FEET WITH NO
SIGNIFICANT WEATHER AND/OR OBSTRUCTIONS TO VISIBILITY.

* - THESE SITES REPORT LIMITED FIELDS

HIZ001>004-240900-
KAUAI-NIIHAU-

CITY           SKY/WX    TMP DP  RH WIND       PRES   REMARKS
LIHUE APT      LGT RAIN  72  68  87 NE13      30.17S FOG
PORT ALLEN*      N/A     72 N/A N/A E10         N/A
POIPU*           N/A     73 N/A N/A NE8G16      N/A
PRINCEVILLE*     N/A     70 N/A N/A SE5G10      N/A
KOKOLE POINT*  NOT AVBL
MOLOAA DAIRY*    N/A     72  66  83 E3G14       N/A
WAIMEA HTS*    NOT AVBL
PUU OPAE*      NOT AVBL
PUU LUA*       NOT AVBL
MAKAHA RIDGE*    N/A     66  59  77 CALM        N/A
$$

HIZ005>011-240900-
OAHU-

CITY           SKY/WX    TMP DP  RH WIND       PRES   REMARKS
HONOLULU       PTCLDY    73  65  75 E5        30.14S
KALAELOA       PTCLDY    73  65  75 NE5       30.16R
KANEOHE MCB    NOT AVBL
WHEELER FIELD  MOCLDY    69  67  94 CALM      30.15S
BELLOWS*         N/A    N/A N/A N/A E21G26      N/A
KAHUKU*          N/A    N/A N/A N/A NE10G17     N/A
WHEELER*       NOT AVBL
WAIANAE HARBOR NOT AVBL
DILLINGHAM*      N/A     82  77  83 MISG        N/A  HX  91
KAHUKU TRN*      N/A     70  64  83 W10G18      N/A
KAWAILOA*        N/A     66  64  94 E6G21       N/A
KII*             N/A     73  68  83 E17G24      N/A
MAKUA RANGE*     N/A     64  59  82 NW3         N/A
OAHU FOREST NW NOT AVBL
SCHOFIELD BRK*   N/A     77  75  94 MISG        N/A
SCHOFIELD S*   NOT AVBL
WAIANAE VLY*   NOT AVBL
KUAOKALA*      NOT AVBL
HONOULIUULI*   NOT AVBL
MOKUOLOE IS*   NOT AVBL
PALEHUA*       NOT AVBL
WAIAWA PHB*    NOT AVBL
$$

HIZ012>013-240900-
MOLOKAI-

CITY           SKY/WX    TMP DP  RH WIND       PRES   REMARKS
MOLOKAI AIRPT  CLEAR     68  64  87 VRB5      30.16S
KALAUPAPA      NOT AVBL
MAKAPULAPAI*     N/A     72  68  88 E13G26      N/A
MOLOKAI 1*     NOT AVBL
PUU ALII*        N/A     58  58 100 NE2G12      N/A
$$

HIZ016-240900-
KAHOOLAWE-

CITY           SKY/WX    TMP DP  RH WIND       PRES   REMARKS
KAHOOLAWE*     NOT AVBL
HAKIOAWA*        N/A     69  66  91 MISG      30.54S
HONOKANAIA*      N/A     74  65  74 NE17G35   30.07R
KANELOA*         N/A     70  66  88 NE18G32     N/A
KEALIALALO*    NOT AVBL
LUA MAKIKA*    NOT AVBL
$$

HIZ014>015-240900-
LANAI-

CITY           SKY/WX    TMP DP  RH WIND       PRES   REMARKS
LANAI CITY     NOT AVBL
LANAI 1*       NOT AVBL
$$

HIZ017>028-240900-
MAUI-

CITY           SKY/WX    TMP DP  RH WIND       PRES   REMARKS
KAHULUI        CLEAR     69  64  84 SE7       30.14R
KAPALUA-W MAUI NOT AVBL
HANA AIRPORT   CLOUDY    72  68  88 SE7       30.18S
HANA*            N/A     72 N/A N/A SE7G18      N/A
HALEAKALA SUMM   N/A     41  18  38 N8          N/A
MAALAEA BAY*     N/A     68 N/A N/A NE5         N/A
HALEAKALA*     NOT AVBL
KAUPO GAP*     NOT AVBL
KULA 1*          N/A    N/A N/A N/A E6          N/A
$$

HIZ023>026-240900-
BIG ISLAND OF HAWAII COAST AND LOWER SLOPES-

CITY           SKY/WX    TMP DP  RH WIND       PRES   REMARKS
KAILUA KONA    CLEAR     73  65  75 E3        30.11S
HILO           CLOUDY    71  69  93 SW5       30.17S
HONOKAA*         N/A     66 N/A N/A VRB1        N/A
KAWAIHAE MWT*  NOT AVBL
KAWAIHAE*        N/A     73 N/A N/A NE3       30.12S
SOUTH POINT*     N/A     68 N/A N/A N20G26      N/A
UPOLU AIRPORT* NOT AVBL
KAMUELA*       CLOUDY    61  59  94 E8        30.22S
HAKALAU*         N/A     51  50  97 S3G12       N/A
KALOKO-HONOKO*   N/A    N/A N/A N/A NE5       30.11S
PALI 2*          N/A    N/A N/A N/A SW8         N/A
KEALAKOMO*       N/A     73  68  83 N9G18       N/A
KAUPULEHU*     NOT AVBL
KAPAPALA*      NOT AVBL
LOWER KAHUKU*    N/A     59  59 100 VRB3G12     N/A
PUHE CS*         N/A     72  61  68 NE2         N/A
PUHO CS*         N/A     71  62  71 E2          N/A
PTA KEAMUKU*     N/A     57  52  82 CALM        N/A
WAIKOLOA*      NOT AVBL
$$

HIZ027>028-240900-
BIG ISLAND OF HAWAII INTERIOR AND SUMMMITS-

CITY           SKY/WX    TMP DP  RH WIND       PRES   REMARKS
BRADSHAW FIELD MOCLDY    55  49  78 SE8       30.43S
MK VISITOR CEN   N/A     45  37  76 NE8         N/A
MAUNA KEA*       N/A     28  28 100 NE3         N/A
MAUNA LOA*       N/A    N/A N/A N/A MISG        N/A
MAUNA LOA 1*   NOT AVBL
PTA KIPUKA*      N/A     68  68 100 S1          N/A
PTA RANGE 17*    N/A     54  46  76 E12G18      N/A
PTA WEST*        N/A     57  55  94 S3G13       N/A
NENE CABIN*      N/A     50  50 100 E5G13       N/A
AHUMOA*        NOT AVBL
PTA PORTABLE*  NOT AVBL
PUU MALI*        N/A     54 N/A N/A S5          N/A
$$

HIC003-240900-
NORTHWEST ISLANDS-

CITY           SKY/WX    TMP DP  RH WIND       PRES   REMARKS
MIDWAY ISLAND  CLEAR     72  68  88 S8        30.15R
MIDWAY NOS*      N/A     72 N/A N/A MISG      30.13R
FRENCH FRIGATE NOT AVBL
$$

PHZ110>124-180-240900-
BUOY REPORTS

STATION/POSITION TIME  TEMP    WIND        PRES    WAVE   SWELL
                       AIR SEA DIR/SP/G            HT/PER HT/DIR
                 (UTC) (F)     (DEG/KT/KT) (MB)    (FT/S) (FT/D)
BUOY 51001       0810   73 73   90/ 12/ 16 1022.4
BUOY 51101       0750   73 75   80/ 14/ 17 1022.8R   8/ 9   7/ 90
BUOY 51100       NOT AVBL
BUOY 51002       0810   76 77   60/ 19/ 25 1018.5
BUOY 51003       0750   76 78   50/ 14/ 16 1019.8R   9/10   8/ 90
BUOY 51004       0750      77   70/ 21/ 25 1019.1R  12/10  10/ 60
BARBERS PT BUOY  NOT AVBL
WAIMEA BAY BUOY  0802      74                N/A     7/11   3/ 10
KAILUA BAY BUOY  0804      76                N/A    10/10   5/ 20
LANAI BUOY       0815      77                N/A     2/13   2/240
BARBERS PT 2     0809      77                N/A     5/10   2/300
PAUWELA MAUI     0809      75                N/A    10/10   5/ 20
HILO             0812      76                N/A    11/ 9   5/ 50
KANEOHE BAY BUOY 0806      75                N/A     9/11   5/ 10
HANALEI KAUAI    0752      77                N/A     9/11   5/ 40
KAHULUI HARBOR   0800   73 74   50/  2/  2 1020.4
HONOLULU HARBOR  0800   74 76   60/  2/  3 1021.4
KILO NALU        NOT AVBL
HILO HARBOR      0800   70 73  230/  5/  6 1021.1
MOKUOLOE         0736   74 73  110/ 14/ 20 1020.9S
NAWILIWILI       0800   73      60/ 11/ 17 1021.1
WHOTS BUOY       NOT AVBL
BUOY 51028       NOT AVBL
$$

......................KEY........................................
  SKY/WX - SKY CONDITIONS/PRESENT WEATHER
  TMP    - TEMPERATURE IN FAHRENHEIT
  DWPT   - DEWPOINT IN FAHRENHEIT
  RH     - RELATIVE HUMIDITY IN PERCENT
  WIND   - DIRECTION AND SPEED /MPH FOR ISLANDS...KTS FOR BUOYS/
  PRES   - MEAN SEA LEVEL PRESSURE IN INCHES OF HG
  VSB    - VISIBILITY IN MILES
  HX     - HEAT INDEX
  WCI    - WIND CHILL INDEX
  VRB    - VARIABLE WIND DIRECTION
  N/A    - NOT AVAILABLE




USA.gov is the U.S. government's official web portal to all federal, state and local government web resources and services.